Theta_e
314 314 313 313 315 320 326 331 335 337 340 341 341 339 338 342 341 341 338 336 338 338 337 337 336 334 335 336 336 333 334 334
314 314 313 314 313 314 315 320 322 329 335 335 338 338 338 340 340 341 340 340 338 339 338 338 338 337 336 335 336 336 333 333
313 313 312 312 312 312 313 313 314 315 317 322 329 330 333 336 335 336 339 339 339 338 338 338 336 337 337 337 335 336 336 334
313 312 312 309 309 309 309 310 311 311 312 314 317 322 323 328 331 336 336 335 338 337 338 337 338 339 337 337 337 336 335 335
312 312 311 310 308 307 306 305 307 309 309 310 310 312 314 314 317 321 323 325 329 334 337 337 336 337 338 338 337 337 336 334
311 310 309 308 306 305 306 304 302 302 303 306 308 308 307 309 311 313 317 319 320 324 328 329 335 337 336 337 338 337 337 336
309 308 308 307 307 305 304 304 303 302 301 300 301 305 305 306 306 308 310 311 313 314 314 316 319 327 330 334 335 338 337 337
309 308 308 307 307 306 305 304 303 302 301 300 299 299 299 300 302 303 303 306 309 311 312 312 311 313 321 323 329 331 334 336
308 308 308 307 306 305 304 304 303 302 300 300 299 298 297 297 297 298 300 301 302 304 307 307 308 309 311 314 315 321 328 331
308 308 308 307 306 305 304 303 303 302 301 300 300 299 298 296 296 296 297 297 298 299 301 304 305 306 306 308 311 312 314 323
309 308 307 306 306 305 304 302 302 301 301 300 300 299 298 297 296 296 296 296 297 297 298 298 300 303 303 306 308 308 310 312
308 308 307 306 306 304 303 302 302 301 300 300 299 300 298 296 296 296 296 296 296 296 296 297 297 298 299 302 302 306 309 309
309 308 307 306 305 304 302 302 301 300 299 299 299 299 298 296 296 296 295 295 296 296 296 296 297 297 298 297 298 301 303 305
308 307 306 305 304 303 302 301 300 299 299 299 298 298 297 295 294 295 296 296 296 296 296 296 297 298 297 297 298 298 298 299
307 306 305 304 303 302 301 300 300 298 299 298 298 298 295 294 294 295 295 295 295 295 295 295 295 295 296 298 297 296 296 296
307 305 304 304 302 301 300 300 298 298 298 298 297 296 294 294 295 295 295 295 295 294 294 294 295 295 295 295 295 295 295 295
306 305 304 303 301 300 299 299 298 298 297 297 297 294 294 295 295 294 294 294 294 294 294 293 293 294 294 294 293 293 294 294
305 305 304 302 300 299 299 298 298 297 297 297 294 295 295 294 294 294 294 293 294 295 294 292 292 293 293 293 293 293 293 294
305 304 303 301 299 299 298 297 297 297 297 295 295 295 294 294 294 293 293 293 292 292 292 292 292 292 292 292 292 292 293 293
Wind_Speed
21 23 26 30 31 27 19 12 4 4 6 11 13 13 18 16 21 22 22 23 25 29 30 31 28 30 35 33 33 37 34 35
20 21 24 24 26 28 29 22 19 9 7 9 12 14 13 16 17 17 20 26 24 27 29 33 33 32 32 35 36 36 40 38
19 17 19 24 25 27 27 26 25 24 24 20 11 12 13 14 14 15 19 16 23 27 26 32 31 35 37 35 38 39 40 40
21 19 18 19 23 23 23 24 23 23 22 19 17 10 8 11 16 19 20 19 21 18 22 29 32 37 38 40 38 39 45 43
18 17 17 19 18 18 20 21 20 20 20 21 22 22 22 22 21 20 22 25 24 23 21 30 32 34 33 36 44 43 41 46
15 13 14 16 19 19 18 19 20 21 21 20 19 20 19 19 19 19 19 21 22 23 28 28 24 36 31 34 35 42 46 44
19 14 12 14 17 19 20 21 24 25 23 21 21 20 21 22 21 22 22 22 23 23 24 29 31 30 25 27 29 37 41 50
13 12 11 13 17 21 23 23 24 25 25 23 24 23 23 24 24 25 26 25 24 25 26 27 30 33 33 34 34 29 24 31
13 11 10 11 14 18 19 19 22 25 25 24 25 25 25 26 27 27 26 27 27 27 28 29 28 28 32 33 34 32 32 27
12 10 8 9 10 14 16 18 19 22 24 26 27 28 28 28 28 28 28 28 29 30 29 30 30 30 28 30 34 36 25 34
14 12 10 8 8 10 13 15 16 19 19 23 26 28 28 29 29 30 31 31 31 31 31 32 33 33 33 33 33 35 38 32
13 11 8 6 6 9 12 13 15 17 19 19 21 24 29 30 30 31 32 33 33 34 35 36 36 36 35 35 36 37 35 38
10 9 6 4 5 8 11 12 15 16 15 18 20 23 28 30 30 31 32 33 34 36 38 39 38 39 37 38 37 37 38 40
14 10 6 4 5 8 9 11 14 16 17 19 19 23 29 29 31 33 35 36 37 37 38 38 38 38 42 41 34 36 41 42
13 10 6 3 5 7 8 10 16 16 15 19 17 24 27 29 31 33 36 37 39 41 39 39 39 39 37 35 36 43 41 45
14 10 6 4 4 5 6 10 14 14 16 15 20 25 26 28 32 35 36 38 40 42 44 43 39 37 32 35 39 40 46 45
13 9 5 2 2 4 7 11 11 13 14 16 23 24 26 30 33 36 37 41 43 41 42 40 37 37 36 34 35 39 40 41
12 8 4 1 2 5 9 11 9 12 13 20 22 24 27 31 33 35 41 42 40 38 37 36 37 36 36 38 38 38 38 37
12 9 5 2 3 8 10 7 9 9 15 21 22 24 28 31 32 39 40 36 35 36 36 35 37 38 38 37 38 37 37 36
Wind_Direction
56 58 55 56 57 60 60 61 87 149 204 235 257 249 246 270 242 253 258 272 274 272 274 275 276 271 257 255 260 255 260 265
57 55 52 52 52 52 52 52 43 11 287 272 259 264 276 263 267 285 260 256 259 274 273 273 275 271 274 261 258 261 260 260
67 46 48 47 43 44 44 44 39 39 38 25 315 292 290 296 301 297 284 291 260 261 268 274 278 274 273 273 261 259 263 261
73 61 45 46 43 36 37 38 37 36 33 27 27 26 337 285 286 278 285 296 282 278 268 267 265 272 274 272 269 267 258 260
85 69 53 49 49 45 40 36 30 27 24 25 25 24 18 14 3 342 325 313 303 296 282 263 262 264 268 268 272 271 267 260
89 74 47 35 34 41 43 29 35 35 27 16 11 12 12 5 1 359 348 339 327 317 311 297 277 257 268 262 266 259 269 265
95 79 47 32 24 27 27 21 22 18 22 25 21 9 0 356 354 350 349 351 350 344 331 339 327 308 289 285 271 262 257 264
110 89 67 42 25 21 20 16 12 13 12 13 15 16 12 5 355 349 347 343 339 337 336 336 338 337 312 308 285 287 282 259
117 100 79 55 33 25 22 17 8 6 10 14 12 11 10 7 5 2 353 344 339 335 330 331 331 333 328 316 320 313 293 287
128 113 91 63 40 31 20 12 8 4 10 8 7 5 4 4 1 359 356 353 347 338 331 324 322 324 325 324 317 317 321 301
131 116 101 77 50 21 5 5 6 2 10 4 360 357 358 357 357 357 354 351 348 343 339 335 327 318 321 318 319 318 319 320
129 116 102 69 17 3 1 356 354 3 6 360 356 351 350 353 355 354 351 348 347 344 340 337 333 331 325 318 318 310 313 319
139 131 115 72 21 358 355 348 347 354 359 350 354 344 346 349 349 348 348 347 346 342 339 336 334 332 329 328 321 313 310 304
144 137 120 76 16 358 357 346 343 352 358 346 354 340 342 346 346 346 346 344 342 339 337 336 335 331 328 328 326 318 313 308
147 137 114 68 18 3 349 335 337 352 352 347 343 337 340 343 345 345 345 343 340 338 336 333 328 324 326 330 323 322 318 314
142 127 113 81 26 358 332 328 344 350 341 343 334 334 341 345 346 345 343 342 339 335 331 331 330 326 327 316 319 317 316 317
137 130 128 93 22 339 318 329 345 342 343 333 332 342 348 349 345 343 343 339 336 335 334 335 336 334 331 332 326 321 319 321
140 144 152 149 344 298 311 330 344 346 333 332 344 351 348 344 344 344 339 338 339 343 346 348 342 337 336 333 331 325 322 320
154 173 202 229 260 288 316 354 347 338 328 341 351 348 345 347 346 341 342 346 351 352 349 347 346 345 342 336 335 332 324 320